Time,TemperatureF,DewpointF,PressureIn,WindDirection,WindDirectionDegrees,WindSpeedMPH,WindSpeedGustMPH,Humidity,HourlyPrecipIn,Conditions,Clouds,dailyrainin,SoftwareType,DateUTC
2013-06-08 00:01:00,74.0,54.7,29.63,North,0,0.0,0.0,51,0.00,,,0.00,WUHU216HW,2013-06-08 07:01:00,
2013-06-08 00:06:00,73.8,54.6,29.63,North,0,0.0,0.0,51,0.00,,,0.00,WUHU216HW,2013-06-08 07:06:00,
2013-06-08 00:11:00,73.4,54.2,29.63,North,0,0.0,0.0,51,0.00,,,0.00,WUHU216HW,2013-06-08 07:11:00,
2013-06-08 00:16:00,73.3,54.5,29.63,North,0,0.0,0.0,52,0.00,,,0.00,WUHU216HW,2013-06-08 07:16:00,
2013-06-08 00:21:00,73.1,54.4,29.63,North,0,0.0,0.0,52,0.00,,,0.00,WUHU216HW,2013-06-08 07:21:00,
2013-06-08 00:26:00,72.9,54.2,29.63,North,0,0.0,0.0,52,0.00,,,0.00,WUHU216HW,2013-06-08 07:26:00,
2013-06-08 00:31:00,72.7,54.6,29.63,North,0,0.0,0.0,53,0.00,,,0.00,WUHU216HW,2013-06-08 07:31:00,
2013-06-08 00:36:00,72.7,54.0,29.63,North,0,0.0,0.0,52,0.00,,,0.00,WUHU216HW,2013-06-08 07:36:00,
2013-06-08 00:41:00,72.5,53.8,29.63,North,0,0.0,0.0,52,0.00,,,0.00,WUHU216HW,2013-06-08 07:41:00,
2013-06-08 00:46:00,72.4,54.2,29.63,North,0,0.0,0.0,53,0.00,,,0.00,WUHU216HW,2013-06-08 07:46:00,
2013-06-08 00:51:00,72.4,54.2,29.63,North,0,0.0,0.0,53,0.00,,,0.00,WUHU216HW,2013-06-08 07:51:00,
2013-06-08 00:57:00,72.2,54.0,29.63,North,0,0.0,0.0,53,0.00,,,0.00,WUHU216HW,2013-06-08 07:57:00,
2013-06-08 01:02:00,72.2,54.6,29.62,North,0,0.0,0.0,54,0.00,,,0.00,WUHU216HW,2013-06-08 08:02:00,
2013-06-08 01:07:00,72.0,54.4,29.63,North,0,0.0,0.0,54,0.00,,,0.00,WUHU216HW,2013-06-08 08:07:00,
2013-06-08 01:12:00,71.8,54.2,29.62,North,0,0.0,0.0,54,0.00,,,0.00,WUHU216HW,2013-06-08 08:12:00,
2013-06-08 01:17:00,71.6,54.5,29.62,North,0,0.0,0.0,55,0.00,,,0.00,WUHU216HW,2013-06-08 08:17:00,
2013-06-08 01:23:00,71.3,54.2,29.62,North,0,0.0,0.0,55,0.00,,,0.00,WUHU216HW,2013-06-08 08:23:00,
2013-06-08 01:28:00,70.9,53.9,29.62,North,0,0.0,0.0,55,0.00,,,0.00,WUHU216HW,2013-06-08 08:28:00,
2013-06-08 01:33:00,70.7,54.3,29.62,North,0,0.0,0.0,56,0.00,,,0.00,WUHU216HW,2013-06-08 08:33:00,
2013-06-08 01:38:00,70.6,54.1,29.62,North,0,0.0,0.0,56,0.00,,,0.00,WUHU216HW,2013-06-08 08:38:00,
2013-06-08 01:43:00,70.4,53.9,29.62,North,0,0.0,0.0,56,0.00,,,0.00,WUHU216HW,2013-06-08 08:43:00,
2013-06-08 01:48:00,70.2,53.7,29.62,North,0,0.0,0.0,56,0.00,,,0.00,WUHU216HW,2013-06-08 08:48:00,
2013-06-08 01:54:00,70.0,54.1,29.62,North,0,0.0,0.0,57,0.00,,,0.00,WUHU216HW,2013-06-08 08:54:00,
2013-06-08 01:59:00,69.8,53.9,29.62,North,0,0.0,0.0,57,0.00,,,0.00,WUHU216HW,2013-06-08 08:59:00,
2013-06-08 02:04:00,69.7,53.7,29.62,North,0,0.0,0.0,57,0.00,,,0.00,WUHU216HW,2013-06-08 09:04:00,
2013-06-08 02:09:00,69.5,54.1,29.62,North,0,0.0,0.0,58,0.00,,,0.00,WUHU216HW,2013-06-08 09:09:00,
2013-06-08 02:14:00,69.3,53.9,29.61,North,0,0.0,0.0,58,0.00,,,0.00,WUHU216HW,2013-06-08 09:14:00,
2013-06-08 02:19:00,69.1,54.2,29.61,North,0,0.0,0.0,59,0.00,,,0.00,WUHU216HW,2013-06-08 09:19:00,
2013-06-08 02:24:00,68.9,54.0,29.61,North,0,0.0,0.0,59,0.00,,,0.00,WUHU216HW,2013-06-08 09:24:00,
2013-06-08 02:29:00,68.8,53.9,29.61,North,0,0.0,0.0,59,0.00,,,0.00,WUHU216HW,2013-06-08 09:29:00,
2013-06-08 02:34:00,68.6,54.2,29.61,North,0,0.0,0.0,60,0.00,,,0.00,WUHU216HW,2013-06-08 09:34:00,
2013-06-08 02:39:00,68.6,54.6,29.61,North,0,0.0,0.0,61,0.00,,,0.00,WUHU216HW,2013-06-08 09:39:00,
2013-06-08 02:44:00,68.4,54.5,29.62,North,0,0.0,0.0,61,0.00,,,0.00,WUHU216HW,2013-06-08 09:44:00,
2013-06-08 02:49:00,68.2,54.3,29.61,North,0,0.0,0.0,61,0.00,,,0.00,WUHU216HW,2013-06-08 09:49:00,
2013-06-08 02:54:00,68.0,54.1,29.62,North,0,0.0,0.0,61,0.00,,,0.00,WUHU216HW,2013-06-08 09:54:00,
2013-06-08 03:00:00,68.0,54.6,29.62,North,0,0.0,0.0,62,0.00,,,0.00,WUHU216HW,2013-06-08 10:00:00,
2013-06-08 03:05:00,67.9,54.4,29.62,North,0,0.0,0.0,62,0.00,,,0.00,WUHU216HW,2013-06-08 10:05:00,
2013-06-08 03:10:00,67.7,54.6,29.62,North,0,0.0,0.0,63,0.00,,,0.00,WUHU216HW,2013-06-08 10:10:00,
2013-06-08 03:15:00,67.5,54.5,29.62,North,0,0.0,0.0,63,0.00,,,0.00,WUHU216HW,2013-06-08 10:15:00,
2013-06-08 03:20:00,67.3,54.3,29.62,North,0,0.0,0.0,63,0.00,,,0.00,WUHU216HW,2013-06-08 10:20:00,
2013-06-08 03:25:00,67.1,54.1,29.62,North,0,0.0,0.0,63,0.00,,,0.00,WUHU216HW,2013-06-08 10:25:00,
2013-06-08 03:30:00,67.1,54.6,29.62,North,0,0.0,0.0,64,0.00,,,0.00,WUHU216HW,2013-06-08 10:30:00,
2013-06-08 03:35:00,67.0,54.4,29.61,North,0,0.0,0.0,64,0.00,,,0.00,WUHU216HW,2013-06-08 10:35:00,
2013-06-08 03:40:00,66.8,54.6,29.61,North,0,0.0,0.0,65,0.00,,,0.00,WUHU216HW,2013-06-08 10:40:00,
2013-06-08 03:45:00,66.6,54.5,29.61,North,0,0.0,0.0,65,0.00,,,0.00,WUHU216HW,2013-06-08 10:45:00,
2013-06-08 03:50:00,66.6,54.5,29.61,North,0,0.0,0.0,65,0.00,,,0.00,WUHU216HW,2013-06-08 10:50:00,
2013-06-08 03:55:00,66.4,54.3,29.61,North,0,0.0,0.0,65,0.00,,,0.00,WUHU216HW,2013-06-08 10:55:00,
2013-06-08 04:00:00,66.2,54.1,29.61,North,0,0.0,0.0,65,0.00,,,0.00,WUHU216HW,2013-06-08 11:00:00,
2013-06-08 04:05:00,66.2,54.1,29.61,North,0,0.0,0.0,65,0.00,,,0.00,WUHU216HW,2013-06-08 11:05:00,
2013-06-08 04:10:00,66.1,53.9,29.61,North,0,0.0,0.0,65,0.00,,,0.00,WUHU216HW,2013-06-08 11:10:00,
2013-06-08 04:16:00,65.9,54.2,29.61,North,0,0.0,0.0,66,0.00,,,0.00,WUHU216HW,2013-06-08 11:16:00,
2013-06-08 04:21:00,65.9,54.2,29.61,North,0,0.0,0.0,66,0.00,,,0.00,WUHU216HW,2013-06-08 11:21:00,
2013-06-08 04:26:00,65.7,54.0,29.61,North,0,0.0,0.0,66,0.00,,,0.00,WUHU216HW,2013-06-08 11:26:00,
2013-06-08 04:31:00,65.5,53.8,29.61,North,0,0.0,0.0,66,0.00,,,0.00,WUHU216HW,2013-06-08 11:31:00,
2013-06-08 04:36:00,65.3,54.1,29.61,North,0,0.0,0.0,67,0.00,,,0.00,WUHU216HW,2013-06-08 11:36:00,
2013-06-08 04:41:00,65.2,53.9,29.61,North,0,0.0,0.0,67,0.00,,,0.00,WUHU216HW,2013-06-08 11:41:00,
2013-06-08 04:46:00,65.2,53.9,29.61,North,0,0.0,0.0,67,0.00,,,0.00,WUHU216HW,2013-06-08 11:46:00,
2013-06-08 04:51:00,65.2,54.4,29.61,North,0,0.0,0.0,68,0.00,,,0.00,WUHU216HW,2013-06-08 11:51:00,
2013-06-08 04:57:00,65.2,54.4,29.61,North,0,0.0,0.0,68,0.00,,,0.00,WUHU216HW,2013-06-08 11:57:00,
2013-06-08 05:02:00,65.0,54.2,29.61,North,0,0.0,0.0,68,0.00,,,0.00,WUHU216HW,2013-06-08 12:02:00,
2013-06-08 05:07:00,64.8,54.0,29.62,North,0,0.0,0.0,68,0.00,,,0.00,WUHU216HW,2013-06-08 12:07:00,
2013-06-08 05:12:00,64.8,54.0,29.62,North,0,0.0,0.0,68,0.00,,,0.00,WUHU216HW,2013-06-08 12:12:00,
2013-06-08 05:17:00,64.8,54.0,29.62,North,0,0.0,0.0,68,0.00,,,0.00,WUHU216HW,2013-06-08 12:17:00,
2013-06-08 05:22:00,64.6,54.3,29.62,North,0,0.0,0.0,69,0.00,,,0.00,WUHU216HW,2013-06-08 12:22:00,
2013-06-08 05:27:00,64.4,54.1,29.62,North,0,0.0,0.0,69,0.00,,,0.00,WUHU216HW,2013-06-08 12:27:00,
2013-06-08 05:32:00,64.4,54.1,29.62,North,0,0.0,0.0,69,0.00,,,0.00,WUHU216HW,2013-06-08 12:32:00,
2013-06-08 05:37:00,64.4,54.1,29.62,North,0,0.0,0.0,69,0.00,,,0.00,WUHU216HW,2013-06-08 12:37:00,
2013-06-08 05:42:00,64.3,54.4,29.62,North,0,0.0,0.0,70,0.00,,,0.00,WUHU216HW,2013-06-08 12:42:00,
2013-06-08 05:47:00,64.3,54.4,29.62,North,0,0.0,0.0,70,0.00,,,0.00,WUHU216HW,2013-06-08 12:47:00,
2013-06-08 05:52:00,64.1,54.2,29.62,North,0,0.0,0.0,70,0.00,,,0.00,WUHU216HW,2013-06-08 12:52:00,
2013-06-08 05:57:00,64.1,54.2,29.62,North,0,0.0,0.0,70,0.00,,,0.00,WUHU216HW,2013-06-08 12:57:00,
2013-06-08 06:02:00,64.1,54.5,29.62,North,0,0.0,0.0,71,0.00,,,0.00,WUHU216HW,2013-06-08 13:02:00,
2013-06-08 06:07:00,64.1,54.5,29.62,North,0,0.0,0.0,71,0.00,,,0.00,WUHU216HW,2013-06-08 13:07:00,
2013-06-08 06:12:00,64.1,54.5,29.62,North,0,0.0,0.0,71,0.00,,,0.00,WUHU216HW,2013-06-08 13:12:00,
2013-06-08 06:17:00,64.1,54.5,29.62,North,0,0.0,0.0,71,0.00,,,0.00,WUHU216HW,2013-06-08 13:17:00,
2013-06-08 06:22:00,64.1,54.9,29.63,North,0,0.0,0.0,72,0.00,,,0.00,WUHU216HW,2013-06-08 13:22:00,
2013-06-08 06:27:00,64.1,54.9,29.63,North,0,0.0,0.0,72,0.00,,,0.00,WUHU216HW,2013-06-08 13:27:00,
2013-06-08 06:32:00,64.1,54.9,29.63,North,0,0.0,0.0,72,0.00,,,0.00,WUHU216HW,2013-06-08 13:32:00,
2013-06-08 06:37:00,63.9,54.7,29.63,North,0,0.0,0.0,72,0.00,,,0.00,WUHU216HW,2013-06-08 13:37:00,
2013-06-08 06:43:00,64.1,54.9,29.63,North,0,0.0,0.0,72,0.00,,,0.00,WUHU216HW,2013-06-08 13:43:00,
2013-06-08 06:48:00,64.1,54.9,29.63,North,0,0.0,0.0,72,0.00,,,0.00,WUHU216HW,2013-06-08 13:48:00,
2013-06-08 06:53:00,64.3,55.1,29.63,North,0,0.0,0.0,72,0.00,,,0.00,WUHU216HW,2013-06-08 13:53:00,
2013-06-08 06:58:00,64.4,55.3,29.63,North,0,0.0,0.0,72,0.00,,,0.00,WUHU216HW,2013-06-08 13:58:00,
2013-06-08 07:03:00,64.6,55.5,29.63,North,0,0.0,0.0,72,0.00,,,0.00,WUHU216HW,2013-06-08 14:03:00,
2013-06-08 07:08:00,64.8,55.6,29.63,North,0,0.0,0.0,72,0.00,,,0.00,WUHU216HW,2013-06-08 14:08:00,
2013-06-08 07:13:00,65.0,55.8,29.63,North,0,0.0,0.0,72,0.00,,,0.00,WUHU216HW,2013-06-08 14:13:00,
2013-06-08 07:18:00,65.2,55.9,29.64,North,0,0.0,0.0,72,0.00,,,0.00,WUHU216HW,2013-06-08 14:18:00,
2013-06-08 07:23:00,65.5,56.3,29.63,North,0,0.0,0.0,72,0.00,,,0.00,WUHU216HW,2013-06-08 14:23:00,
2013-06-08 07:28:00,65.9,56.6,29.63,North,0,0.0,0.0,72,0.00,,,0.00,WUHU216HW,2013-06-08 14:28:00,
2013-06-08 07:33:00,66.2,56.9,29.63,North,0,0.0,0.0,72,0.00,,,0.00,WUHU216HW,2013-06-08 14:33:00,
2013-06-08 07:38:00,66.6,57.2,29.63,North,0,0.0,0.0,72,0.00,,,0.00,WUHU216HW,2013-06-08 14:38:00,
2013-06-08 07:43:00,66.8,57.1,29.64,North,0,0.0,0.0,71,0.00,,,0.00,WUHU216HW,2013-06-08 14:43:00,
2013-06-08 07:48:00,67.1,57.4,29.64,North,0,0.0,0.0,71,0.00,,,0.00,WUHU216HW,2013-06-08 14:48:00,
2013-06-08 07:53:00,67.3,57.6,29.64,North,0,0.0,0.0,71,0.00,,,0.00,WUHU216HW,2013-06-08 14:53:00,
2013-06-08 07:58:00,67.7,57.6,29.63,North,0,0.0,0.0,70,0.00,,,0.00,WUHU216HW,2013-06-08 14:58:00,
2013-06-08 08:03:00,68.0,58.0,29.64,North,0,0.0,0.0,70,0.00,,,0.00,WUHU216HW,2013-06-08 15:03:00,
2013-06-08 08:08:00,68.6,58.1,29.64,North,0,0.0,0.0,69,0.00,,,0.00,WUHU216HW,2013-06-08 15:08:00,
2013-06-08 08:13:00,68.8,57.8,29.64,North,0,0.0,0.0,68,0.00,,,0.00,WUHU216HW,2013-06-08 15:13:00,
2013-06-08 08:18:00,69.3,57.9,29.64,North,0,0.0,0.0,67,0.00,,,0.00,WUHU216HW,2013-06-08 15:18:00,
2013-06-08 08:24:00,69.8,58.0,29.64,North,0,0.0,0.0,66,0.00,,,0.00,WUHU216HW,2013-06-08 15:24:00,
2013-06-08 08:29:00,70.4,58.4,29.63,North,0,0.0,0.0,66,0.00,,,0.00,WUHU216HW,2013-06-08 15:29:00,
2013-06-08 08:34:00,70.9,58.5,29.63,North,0,0.0,0.0,65,0.00,,,0.00,WUHU216HW,2013-06-08 15:34:00,
2013-06-08 08:39:00,71.6,59.7,29.63,North,0,0.0,0.0,66,0.00,,,0.00,WUHU216HW,2013-06-08 15:39:00,
2013-06-08 08:44:00,71.8,59.9,29.63,North,0,0.0,0.0,66,0.00,,,0.00,WUHU216HW,2013-06-08 15:44:00,
2013-06-08 08:49:00,72.4,60.0,29.63,North,0,0.0,0.0,65,0.00,,,0.00,WUHU216HW,2013-06-08 15:49:00,
2013-06-08 08:54:00,72.9,59.9,29.63,North,0,0.0,0.0,64,0.00,,,0.00,WUHU216HW,2013-06-08 15:54:00,
2013-06-08 08:59:00,73.4,60.0,29.63,North,0,0.0,0.0,63,0.00,,,0.00,WUHU216HW,2013-06-08 15:59:00,
2013-06-08 09:04:00,73.8,60.0,29.63,North,0,0.0,0.0,62,0.00,,,0.00,WUHU216HW,2013-06-08 16:04:00,
2013-06-08 09:09:00,74.3,60.5,29.63,North,0,0.0,0.0,62,0.00,,,0.00,WUHU216HW,2013-06-08 16:09:00,
2013-06-08 09:14:00,74.9,60.6,29.63,North,0,0.0,0.0,61,0.00,,,0.00,WUHU216HW,2013-06-08 16:14:00,
2013-06-08 09:19:00,75.4,61.1,29.63,North,0,0.0,0.0,61,0.00,,,0.00,WUHU216HW,2013-06-08 16:19:00,
2013-06-08 09:24:00,76.0,61.1,29.63,North,0,0.0,0.0,60,0.00,,,0.00,WUHU216HW,2013-06-08 16:24:00,
2013-06-08 09:29:00,76.5,61.1,29.63,North,0,0.0,0.0,59,0.00,,,0.00,WUHU216HW,2013-06-08 16:29:00,
2013-06-08 09:34:00,77.2,61.3,29.62,North,0,0.0,0.0,58,0.00,,,0.00,WUHU216HW,2013-06-08 16:34:00,
2013-06-08 09:39:00,77.8,61.8,29.62,North,0,0.0,0.0,58,0.00,,,0.00,WUHU216HW,2013-06-08 16:39:00,
2013-06-08 09:45:00,78.5,61.5,29.62,North,0,0.0,0.0,56,0.00,,,0.00,WUHU216HW,2013-06-08 16:45:00,
2013-06-08 09:50:00,79.4,62.3,29.62,North,0,0.0,0.0,56,0.00,,,0.00,WUHU216HW,2013-06-08 16:50:00,
2013-06-08 09:55:00,80.1,62.5,29.62,North,0,0.0,0.0,55,0.00,,,0.00,WUHU216HW,2013-06-08 16:55:00,
2013-06-08 10:00:00,80.5,62.2,29.62,North,0,0.0,0.0,54,0.00,,,0.00,WUHU216HW,2013-06-08 17:00:00,
2013-06-08 10:05:00,81.0,62.7,29.62,North,0,0.0,0.0,54,0.00,,,0.00,WUHU216HW,2013-06-08 17:05:00,
2013-06-08 10:10:00,81.7,62.8,29.62,North,0,0.0,0.0,53,0.00,,,0.00,WUHU216HW,2013-06-08 17:10:00,
2013-06-08 10:15:00,82.6,63.2,29.61,North,0,0.0,0.0,52,0.00,,,0.00,WUHU216HW,2013-06-08 17:15:00,
2013-06-08 10:20:00,83.2,62.0,29.62,North,0,0.0,0.0,49,0.00,,,0.00,WUHU216HW,2013-06-08 17:20:00,
2013-06-08 10:25:00,83.9,63.4,29.61,North,0,0.0,0.0,50,0.00,,,0.00,WUHU216HW,2013-06-08 17:25:00,
2013-06-08 10:30:00,85.0,63.7,29.61,North,0,0.0,0.0,49,0.00,,,0.00,WUHU216HW,2013-06-08 17:30:00,
2013-06-08 10:35:00,86.0,62.8,29.61,North,0,0.0,0.0,46,0.00,,,0.00,WUHU216HW,2013-06-08 17:35:00,
2013-06-08 10:40:00,86.9,63.0,29.61,North,0,0.0,0.0,45,0.00,,,0.00,WUHU216HW,2013-06-08 17:40:00,
2013-06-08 10:45:00,87.7,63.6,29.61,North,0,0.0,0.0,45,0.00,,,0.00,WUHU216HW,2013-06-08 17:45:00,
2013-06-08 10:50:00,88.6,63.2,29.61,North,0,0.0,0.0,43,0.00,,,0.00,WUHU216HW,2013-06-08 17:50:00,
2013-06-08 10:55:00,89.3,63.1,29.61,North,0,0.0,0.0,42,0.00,,,0.00,WUHU216HW,2013-06-08 17:55:00,
2013-06-08 11:00:00,90.2,63.3,29.61,North,0,0.0,0.0,41,0.00,,,0.00,WUHU216HW,2013-06-08 18:00:00,
2013-06-08 11:05:00,90.7,63.1,29.61,North,0,0.0,0.0,40,0.00,,,0.00,WUHU216HW,2013-06-08 18:05:00,
2013-06-08 11:10:00,91.1,63.4,29.61,North,0,0.0,0.0,40,0.00,,,0.00,WUHU216HW,2013-06-08 18:10:00,
2013-06-08 11:15:00,91.6,63.9,29.60,North,0,0.0,0.0,40,0.00,,,0.00,WUHU216HW,2013-06-08 18:15:00,
2013-06-08 11:20:00,92.2,63.5,29.60,North,0,0.0,0.0,39,0.00,,,0.00,WUHU216HW,2013-06-08 18:20:00,
2013-06-08 11:25:00,92.7,61.7,29.60,North,0,0.0,0.0,36,0.00,,,0.00,WUHU216HW,2013-06-08 18:25:00,
2013-06-08 11:31:00,93.2,62.1,29.60,North,0,0.0,0.0,36,0.00,,,0.00,WUHU216HW,2013-06-08 18:31:00,
2013-06-08 11:36:00,93.6,62.5,29.60,North,0,0.0,0.0,36,0.00,,,0.00,WUHU216HW,2013-06-08 18:36:00,
2013-06-08 11:41:00,94.3,62.3,29.60,North,0,0.0,0.0,35,0.00,,,0.00,WUHU216HW,2013-06-08 18:41:00,
2013-06-08 11:46:00,95.0,62.9,29.59,North,0,0.0,0.0,35,0.00,,,0.00,WUHU216HW,2013-06-08 18:46:00,
2013-06-08 11:51:00,95.8,62.7,29.59,North,0,0.0,0.0,34,0.00,,,0.00,WUHU216HW,2013-06-08 18:51:00,
2013-06-08 11:57:00,95.9,62.0,29.59,North,0,0.0,0.0,33,0.00,,,0.00,WUHU216HW,2013-06-08 18:57:00,
2013-06-08 12:02:00,96.8,61.1,29.59,North,0,0.0,0.0,31,0.00,,,0.00,WUHU216HW,2013-06-08 19:02:00,
2013-06-08 12:07:00,97.2,62.3,29.59,North,0,0.0,0.0,32,0.00,,,0.00,WUHU216HW,2013-06-08 19:07:00,
2013-06-08 12:12:00,97.6,62.7,29.59,North,0,0.0,0.0,32,0.00,,,0.00,WUHU216HW,2013-06-08 19:12:00,
2013-06-08 12:17:00,97.7,62.7,29.59,North,0,0.0,0.0,32,0.00,,,0.00,WUHU216HW,2013-06-08 19:17:00,
2013-06-08 12:22:00,98.1,63.1,29.59,North,0,0.0,0.0,32,0.00,,,0.00,WUHU216HW,2013-06-08 19:22:00,
2013-06-08 12:27:00,98.3,63.3,29.59,North,0,0.0,0.0,32,0.00,,,0.00,WUHU216HW,2013-06-08 19:27:00,
2013-06-08 12:32:00,98.6,63.5,29.59,North,0,0.0,0.0,32,0.00,,,0.00,WUHU216HW,2013-06-08 19:32:00,
2013-06-08 12:37:00,99.0,63.1,29.59,North,0,0.0,0.0,31,0.00,,,0.00,WUHU216HW,2013-06-08 19:37:00,
2013-06-08 12:42:00,99.4,63.4,29.59,North,0,0.0,0.0,31,0.00,,,0.00,WUHU216HW,2013-06-08 19:42:00,
2013-06-08 12:47:00,99.7,62.9,29.59,North,0,0.0,0.0,30,0.00,,,0.00,WUHU216HW,2013-06-08 19:47:00,
2013-06-08 12:52:00,100.1,62.1,29.59,North,0,0.0,0.0,29,0.00,,,0.00,WUHU216HW,2013-06-08 19:52:00,
2013-06-08 12:57:00,100.4,63.5,29.59,North,0,0.0,0.0,30,0.00,,,0.00,WUHU216HW,2013-06-08 19:57:00,
2013-06-08 13:02:00,100.8,62.7,29.59,North,0,0.0,0.0,29,0.00,,,0.00,WUHU216HW,2013-06-08 20:02:00,
2013-06-08 13:07:00,101.2,64.1,29.58,North,0,0.0,0.0,30,0.00,,,0.00,WUHU216HW,2013-06-08 20:07:00,
2013-06-08 13:13:00,101.5,64.5,29.58,North,0,0.0,0.0,30,0.00,,,0.00,WUHU216HW,2013-06-08 20:13:00,
2013-06-08 13:18:00,102.1,63.7,29.59,North,0,0.0,0.0,29,0.00,,,0.00,WUHU216HW,2013-06-08 20:18:00,
2013-06-08 13:23:00,102.2,63.8,29.58,North,0,0.0,0.0,29,0.00,,,0.00,WUHU216HW,2013-06-08 20:23:00,
2013-06-08 13:28:00,102.6,61.9,29.58,North,0,0.0,0.0,27,0.00,,,0.00,WUHU216HW,2013-06-08 20:28:00,
2013-06-08 13:33:00,103.0,64.5,29.58,North,0,0.0,0.0,29,0.00,,,0.00,WUHU216HW,2013-06-08 20:33:00,
2013-06-08 13:38:00,103.5,65.0,29.58,North,0,0.0,0.0,29,0.00,,,0.00,WUHU216HW,2013-06-08 20:38:00,
2013-06-08 13:43:00,103.9,65.3,29.58,North,0,0.0,0.0,29,0.00,,,0.00,WUHU216HW,2013-06-08 20:43:00,
2013-06-08 13:48:00,104.0,65.4,29.57,North,0,0.0,0.0,29,0.00,,,0.00,WUHU216HW,2013-06-08 20:48:00,
2013-06-08 13:53:00,104.4,63.5,29.57,North,0,0.0,0.0,27,0.00,,,0.00,WUHU216HW,2013-06-08 20:53:00,
2013-06-08 13:58:00,104.4,63.5,29.57,North,0,0.0,0.0,27,0.00,,,0.00,WUHU216HW,2013-06-08 20:58:00,
2013-06-08 14:03:00,104.8,66.1,29.57,North,0,0.0,0.0,29,0.00,,,0.00,WUHU216HW,2013-06-08 21:03:00,
2013-06-08 14:08:00,104.9,63.9,29.57,North,0,0.0,0.0,27,0.00,,,0.00,WUHU216HW,2013-06-08 21:08:00,
2013-06-08 14:13:00,105.1,64.0,29.57,North,0,0.0,0.0,27,0.00,,,0.00,WUHU216HW,2013-06-08 21:13:00,
2013-06-08 14:18:00,105.3,64.2,29.57,North,0,0.0,0.0,27,0.00,,,0.00,WUHU216HW,2013-06-08 21:18:00,
2013-06-08 14:23:00,105.7,64.4,29.56,North,0,0.0,0.0,27,0.00,,,0.00,WUHU216HW,2013-06-08 21:23:00,
2013-06-08 14:28:00,105.8,63.5,29.57,North,0,0.0,0.0,26,0.00,,,0.00,WUHU216HW,2013-06-08 21:28:00,
2013-06-08 14:34:00,106.2,64.9,29.56,North,0,0.0,0.0,27,0.00,,,0.00,WUHU216HW,2013-06-08 21:34:00,
2013-06-08 14:39:00,106.6,64.1,29.56,North,0,0.0,0.0,26,0.00,,,0.00,WUHU216HW,2013-06-08 21:39:00,
2013-06-08 14:44:00,106.7,65.4,29.56,North,0,0.0,0.0,27,0.00,,,0.00,WUHU216HW,2013-06-08 21:44:00,
2013-06-08 14:49:00,107.1,65.7,29.56,North,0,0.0,0.0,27,0.00,,,0.00,WUHU216HW,2013-06-08 21:49:00,
2013-06-08 14:54:00,107.1,64.5,29.56,North,0,0.0,0.0,26,0.00,,,0.00,WUHU216HW,2013-06-08 21:54:00,
2013-06-08 14:59:00,107.1,65.7,29.56,North,0,0.0,0.0,27,0.00,,,0.00,WUHU216HW,2013-06-08 21:59:00,
2013-06-08 15:04:00,107.1,64.5,29.56,North,0,0.0,0.0,26,0.00,,,0.00,WUHU216HW,2013-06-08 22:04:00,
2013-06-08 15:09:00,107.1,64.5,29.56,North,0,0.0,0.0,26,0.00,,,0.00,WUHU216HW,2013-06-08 22:09:00,
2013-06-08 15:14:00,107.1,64.5,29.56,North,0,0.0,0.0,26,0.00,,,0.00,WUHU216HW,2013-06-08 22:14:00,
2013-06-08 15:19:00,107.3,64.7,29.56,North,0,0.0,0.0,26,0.00,,,0.00,WUHU216HW,2013-06-08 22:19:00,
2013-06-08 15:24:00,107.3,64.7,29.56,North,0,0.0,0.0,26,0.00,,,0.00,WUHU216HW,2013-06-08 22:24:00,
2013-06-08 15:29:00,107.3,64.7,29.55,North,0,0.0,0.0,26,0.00,,,0.00,WUHU216HW,2013-06-08 22:29:00,
2013-06-08 15:34:00,107.1,63.5,29.55,North,0,0.0,0.0,25,0.00,,,0.00,WUHU216HW,2013-06-08 22:34:00,
2013-06-08 15:39:00,106.9,63.3,29.55,North,0,0.0,0.0,25,0.00,,,0.00,WUHU216HW,2013-06-08 22:39:00,
2013-06-08 15:44:00,106.9,64.5,29.55,North,0,0.0,0.0,26,0.00,,,0.00,WUHU216HW,2013-06-08 22:44:00,
2013-06-08 15:49:00,106.7,63.1,29.55,North,0,0.0,0.0,25,0.00,,,0.00,WUHU216HW,2013-06-08 22:49:00,
2013-06-08 15:54:00,106.6,64.1,29.56,North,0,0.0,0.0,26,0.00,,,0.00,WUHU216HW,2013-06-08 22:54:00,
2013-06-08 16:00:00,106.9,64.5,29.55,North,0,0.0,0.0,26,0.00,,,0.00,WUHU216HW,2013-06-08 23:00:00,
2013-06-08 16:05:00,106.9,63.3,29.55,North,0,0.0,0.0,25,0.00,,,0.00,WUHU216HW,2013-06-08 23:05:00,
2013-06-08 16:10:00,106.9,63.3,29.55,North,0,0.0,0.0,25,0.00,,,0.00,WUHU216HW,2013-06-08 23:10:00,
2013-06-08 16:15:00,106.4,62.7,29.55,North,0,0.0,0.0,25,0.00,,,0.00,WUHU216HW,2013-06-08 23:15:00,
2013-06-08 16:20:00,106.6,64.1,29.55,North,0,0.0,0.0,26,0.00,,,0.00,WUHU216HW,2013-06-08 23:20:00,
2013-06-08 16:25:00,106.0,63.6,29.55,North,0,0.0,0.0,26,0.00,,,0.00,WUHU216HW,2013-06-08 23:25:00,
2013-06-08 16:30:00,105.1,62.8,29.55,North,0,0.0,0.0,26,0.00,,,0.00,WUHU216HW,2013-06-08 23:30:00,
2013-06-08 16:35:00,104.8,62.6,29.55,North,0,0.0,0.0,26,0.00,,,0.00,WUHU216HW,2013-06-08 23:35:00,
2013-06-08 16:40:00,104.8,63.7,29.55,North,0,0.0,0.0,27,0.00,,,0.00,WUHU216HW,2013-06-08 23:40:00,
2013-06-08 16:45:00,104.2,62.1,29.55,North,0,0.0,0.0,26,0.00,,,0.00,WUHU216HW,2013-06-08 23:45:00,
2013-06-08 16:50:00,103.5,61.6,29.55,North,0,0.0,0.0,26,0.00,,,0.00,WUHU216HW,2013-06-08 23:50:00,
2013-06-08 16:55:00,102.8,62.0,29.56,North,0,0.0,0.0,27,0.00,,,0.00,WUHU216HW,2013-06-08 23:55:00,
2013-06-08 17:00:00,102.1,61.5,29.56,North,0,0.0,0.0,27,0.00,,,0.00,WUHU216HW,2013-06-09 00:00:00,
2013-06-08 17:05:00,101.5,61.0,29.56,North,0,0.0,0.0,27,0.00,,,0.00,WUHU216HW,2013-06-09 00:05:00,
2013-06-08 17:10:00,100.6,60.3,29.56,North,0,0.0,0.0,27,0.00,,,0.00,WUHU216HW,2013-06-09 00:10:00,
2013-06-08 17:16:00,99.7,61.7,29.56,North,0,0.0,0.0,29,0.00,,,0.00,WUHU216HW,2013-06-09 00:16:00,
2013-06-08 17:21:00,99.2,61.3,29.56,North,0,0.0,0.0,29,0.00,,,0.00,WUHU216HW,2013-06-09 00:21:00,
2013-06-08 17:26:00,98.6,60.9,29.56,North,0,0.0,0.0,29,0.00,,,0.00,WUHU216HW,2013-06-09 00:26:00,
2013-06-08 17:31:00,97.7,61.1,29.56,North,0,0.0,0.0,30,0.00,,,0.00,WUHU216HW,2013-06-09 00:31:00,